Weather in Uderevo

Russia / Kursk Oblast     51°59′37″N   37°11′39″E
temp.,
°C
wind,
m/s
gust,
m/s
humid.,
%
clouds,
%
prec.,
mm/h
press.,
hPa
HPBL,
m
3 march, wed
wed300:000nnw71296100 0.5 1013798
03:00−1nnw7138986 0.6 1015683
06:00−3nnw6149034 0.0 1016576
09:00−4nnw7148736 0.0 1019711
12:00−2nnw610840 0.0 1020979
15:000wnw588526 0.0 1021777
18:00−2w410900 0.0 1020238
21:00−1w6129032 0.0 1019615
4 march, thu
thu400:00−2w6129288 0.0 1018400
03:00−3wsw6129260 0.0 1017293
06:00−3wsw613910 0.0 1014302
09:00−2wsw716864 0.0 1012455
12:00+1wsw815843 0.0 1009636
15:00+2sw716909 0.0 1007679
18:00+2wsw7168956 0.0 1004676
21:00+2wsw6149578 0.1 1003481
5 march, fri
fri500:00+2w61398100 0.4 1003537
03:00+1wsw71391100 0.4 1003527
06:000w6129193 0.0 1004607
09:000wnw489797 0.3 1006485
12:00−2n469099 0.3 1008469
15:00−1nne4584100 0.3 1010664
18:00−3nne3689100 0.0 1011330
21:00−4nne2391100 0.0 101389
6 march, sat
sat600:00−5n239250 0.0 101438
03:00−6nnw239359 0.0 101570
06:00−7nnw229325 0.0 101639
09:00−6nw128813 0.0 101799
12:00−4wsw238027 0.0 1017526
15:00−3wnw576964 0.6 10171223
18:00−5w248767 0.2 1017141
21:00−7nw359260 0.3 1019115
7 march, sun
sun700:00−8wnw369318 0.0 1019136
03:00−8wsw49878 0.0 1019207
06:00−7sw6147725 0.0 1016466
09:00−5sw9167163 0.0 1014779
12:00−3sw111768100 0.0 10111098
15:00−1wsw11186999 0.0 10071237
18:00−1wsw9178192 0.0 10051062
21:00−2wsw8177986 0.0 1004871